Total_Precipitation_Accumulation
1.97 2.16 2.36 2.44 2.45 2.29 2.31 2.40 2.31 1.99 1.73 1.52 1.42 1.33 1.32 1.37 1.67 1.58 1.43 1.39 1.28 1.26 1.26 1.22 1.25 1.37 1.66 1.90 2.14 2.32 2.51 2.58 2.66 2.74 2.78 2.76 2.73 2.75
1.99 2.11 2.16 2.20 2.27 2.20 2.19 2.30 2.30 2.13 1.86 1.59 1.41 1.33 1.38 1.31 1.52 1.44 1.53 1.60 1.32 1.19 1.15 1.18 1.16 1.12 1.16 1.28 1.41 1.55 1.66 1.75 1.91 2.08 2.13 2.18 2.21 2.22
1.51 1.66 1.89 2.07 2.16 2.17 2.23 2.30 2.32 2.18 1.91 1.73 1.46 1.41 1.51 1.44 1.45 1.44 1.55 1.59 1.36 1.23 1.09 1.05 1.07 1.03 1.09 1.09 1.08 1.15 1.25 1.35 1.48 1.60 1.70 1.75 1.75 1.77
1.37 1.40 1.50 1.77 1.94 2.07 2.18 2.22 2.26 2.21 2.02 1.97 1.84 1.59 1.50 1.47 1.57 1.67 1.63 1.63 1.56 1.53 1.36 1.15 1.08 1.06 1.05 1.05 1.02 0.98 0.98 1.05 1.14 1.20 1.30 1.46 1.57 1.57
1.25 1.27 1.37 1.48 1.64 1.76 1.91 2.04 2.09 2.20 2.18 1.97 2.00 1.91 1.65 1.60 1.61 1.70 1.77 1.88 1.75 1.69 1.72 1.53 1.32 1.23 1.15 1.07 1.00 0.97 0.94 0.96 1.00 1.06 1.12 1.17 1.25 1.33
1.18 1.25 1.30 1.32 1.51 1.75 1.86 1.97 2.03 2.15 2.28 2.17 2.07 2.00 1.83 1.75 1.72 1.75 1.91 2.01 1.99 1.73 1.62 1.56 1.50 1.40 1.30 1.21 1.08 1.06 1.05 0.99 1.00 1.04 1.07 1.12 1.15 1.16
1.10 1.08 1.16 1.29 1.42 1.63 1.73 1.97 2.01 2.17 2.27 2.29 2.15 1.95 1.80 1.75 1.72 1.72 1.90 2.09 2.12 2.00 1.83 1.60 1.49 1.34 1.26 1.24 1.22 1.19 1.17 1.13 1.11 1.16 1.23 1.23 1.22 1.24
1.14 1.10 1.09 1.17 1.26 1.36 1.40 1.65 1.85 2.00 2.13 2.12 2.11 1.95 1.80 1.71 1.82 1.88 1.90 1.97 2.07 1.98 1.79 1.82 1.73 1.54 1.39 1.26 1.34 1.40 1.40 1.38 1.28 1.23 1.26 1.32 1.34 1.33
1.07 1.12 1.16 1.13 1.23 1.29 1.32 1.44 1.55 1.62 1.76 1.88 1.89 1.80 1.79 1.72 1.82 1.89 1.91 1.84 1.74 1.78 1.73 1.81 1.81 1.64 1.45 1.37 1.43 1.37 1.37 1.39 1.37 1.30 1.25 1.24 1.30 1.36
1.06 1.05 1.18 1.23 1.28 1.43 1.40 1.49 1.43 1.38 1.43 1.50 1.65 1.70 1.67 1.77 1.87 2.04 2.14 2.01 1.85 1.84 1.78 1.72 1.64 1.55 1.38 1.38 1.44 1.31 1.26 1.28 1.30 1.30 1.26 1.21 1.19 1.25
1.01 1.04 1.16 1.24 1.45 1.58 1.56 1.53 1.43 1.37 1.46 1.57 1.69 1.78 1.80 1.87 1.96 2.05 2.10 2.09 2.00 1.93 1.78 1.64 1.51 1.51 1.45 1.36 1.35 1.40 1.32 1.28 1.26 1.28 1.29 1.30 1.33 1.40
1.08 1.07 1.29 1.27 1.41 1.49 1.50 1.59 1.57 1.44 1.43 1.45 1.49 1.56 1.55 1.64 1.91 1.95 2.09 2.18 2.01 1.93 1.78 1.66 1.61 1.72 1.79 1.53 1.32 1.29 1.30 1.38 1.41 1.38 1.39 1.40 1.48 1.45
1.04 1.02 0.98 1.15 1.21 1.33 1.43 1.47 1.73 1.65 1.56 1.55 1.50 1.41 1.42 1.46 1.58 1.78 1.95 2.02 2.00 1.77 1.62 1.65 1.67 1.69 1.67 1.52 1.40 1.33 1.31 1.30 1.37 1.39 1.42 1.51 1.58 1.50
0.91 0.94 0.94 1.10 1.12 1.19 1.21 1.40 1.65 1.66 1.54 1.61 1.57 1.47 1.42 1.45 1.46 1.54 1.71 1.74 1.71 1.69 1.62 1.62 1.66 1.66 1.59 1.43 1.36 1.38 1.39 1.36 1.37 1.39 1.39 1.62 1.69 1.75
0.80 0.97 1.05 1.13 1.09 1.03 1.19 1.44 1.47 1.48 1.62 1.59 1.56 1.48 1.40 1.45 1.46 1.52 1.60 1.60 1.54 1.51 1.52 1.54 1.66 1.72 1.70 1.57 1.37 1.28 1.38 1.45 1.43 1.46 1.50 1.54 1.51 1.57
0.85 1.05 1.21 1.25 1.20 1.13 1.21 1.33 1.33 1.43 1.59 1.48 1.43 1.40 1.38 1.48 1.54 1.59 1.55 1.56 1.59 1.51 1.48 1.48 1.63 1.89 1.95 1.80 1.73 1.61 1.52 1.55 1.52 1.58 1.66 1.70 1.71 1.66
0.98 1.16 1.33 1.37 1.42 1.37 1.33 1.38 1.33 1.28 1.36 1.29 1.31 1.38 1.42 1.45 1.46 1.50 1.51 1.46 1.51 1.44 1.44 1.45 1.46 1.57 1.74 1.82 1.87 1.82 1.83 1.83 1.79 1.83 1.85 1.76 1.65 1.62
1.20 1.31 1.44 1.54 1.56 1.55 1.54 1.49 1.37 1.29 1.23 1.26 1.36 1.40 1.38 1.41 1.44 1.45 1.52 1.52 1.50 1.41 1.40 1.39 1.44 1.59 1.70 1.70 1.63 1.57 1.60 1.65 1.67 1.78 1.87 1.80 1.62 1.47
1.43 1.44 1.46 1.52 1.54 1.49 1.44 1.38 1.28 1.18 1.18 1.25 1.29 1.31 1.34 1.37 1.42 1.42 1.45 1.48 1.41 1.32 1.29 1.30 1.40 1.55 1.69 1.61 1.42 1.34 1.41 1.50 1.60 1.69 1.73 1.63 1.46 1.36
1.53 1.52 1.59 1.57 1.53 1.41 1.30 1.23 1.14 1.13 1.17 1.18 1.17 1.15 1.22 1.31 1.37 1.38 1.41 1.44 1.41 1.36 1.33 1.31 1.39 1.50 1.60 1.57 1.43 1.32 1.36 1.41 1.47 1.56 1.56 1.55 1.49 1.50
1.27 1.27 1.30 1.33 1.28 1.21 1.15 1.14 1.11 1.10 1.11 1.13 1.14 1.14 1.21 1.26 1.25 1.27 1.35 1.48 1.51 1.45 1.43 1.34 1.36 1.51 1.49 1.50 1.44 1.24 1.18 1.35 1.43 1.43 1.47 1.58 1.59 1.53
1.07 1.07 1.06 1.03 1.03 1.03 1.05 1.09 1.12 1.13 1.15 1.17 1.20 1.21 1.26 1.32 1.28 1.27 1.31 1.38 1.43 1.42 1.37 1.34 1.38 1.51 1.55 1.58 1.44 1.27 1.19 1.21 1.38 1.57 1.57 1.57 1.52 1.46
1.13 1.13 1.09 1.05 1.01 1.01 1.07 1.12 1.15 1.16 1.16 1.18 1.22 1.24 1.26 1.30 1.29 1.31 1.33 1.38 1.42 1.45 1.46 1.46 1.48 1.55 1.57 1.54 1.45 1.33 1.25 1.21 1.24 1.36 1.48 1.63 1.53 1.33